Theta_e
342 345 349 349 350 350 350 348 347 348 345 343 342 342 341 341 342 341 342 343 344 345 344 344 346 344 341 342 341 339 338 338 338 338 339 339 340 341 342 342 343 344 347
344 345 347 349 351 350 350 350 348 347 344 343 341 340 341 340 340 340 341 341 343 345 343 346 344 344 340 339 338 336 336 336 335 336 339 338 338 338 339 338 340 341 345
344 345 347 349 352 350 349 349 348 347 344 342 341 340 340 339 338 338 339 340 341 342 342 345 345 342 339 337 335 334 334 334 333 336 337 332 333 335 337 336 336 340 342
345 345 346 347 351 350 349 349 348 347 343 342 340 339 338 337 336 335 336 337 339 341 344 344 342 339 337 335 333 333 333 332 334 334 331 331 330 335 335 335 336 336 336
345 346 346 347 351 351 350 349 348 346 344 342 340 338 336 334 333 332 332 334 337 338 341 343 339 336 333 332 332 332 331 331 333 331 331 331 331 333 336 335 333 333 334
345 347 346 348 350 350 348 348 348 347 344 342 340 339 338 335 331 330 329 331 334 335 337 338 334 330 328 329 330 330 329 331 331 330 329 331 331 334 335 333 333 333 333
344 347 347 346 348 348 348 348 347 347 345 342 341 340 339 337 331 328 328 329 331 332 333 331 327 325 325 326 327 327 326 330 328 329 331 330 330 335 333 334 331 332 332
344 346 344 339 342 345 347 346 346 345 345 342 341 339 338 337 332 328 327 328 328 329 329 327 324 322 323 324 325 324 325 326 325 326 327 329 333 336 337 336 336 334 334
345 346 345 344 342 337 341 342 342 343 343 343 342 340 338 337 335 331 330 327 326 326 325 323 321 320 322 324 324 323 325 326 324 324 324 325 330 331 333 332 333 333 332
344 345 344 345 345 345 346 335 337 340 340 340 339 335 332 332 331 330 328 327 325 324 322 321 319 319 321 322 321 322 324 324 324 326 326 326 329 329 328 328 328 327 329
342 343 344 344 344 345 345 339 334 334 335 335 333 329 328 333 332 330 326 326 323 322 321 320 319 319 319 318 319 321 322 324 323 325 326 328 329 330 331 329 329 328 327
338 342 343 344 343 344 344 343 344 343 344 341 339 334 335 335 333 328 323 323 323 321 320 318 316 314 317 318 318 320 320 320 321 321 322 326 328 330 331 328 327 327 325
337 338 337 342 344 344 344 342 344 342 345 343 339 337 334 331 329 326 322 322 322 318 318 317 316 315 316 316 317 317 316 316 317 316 316 323 325 326 326 325 324 323 322
334 334 335 331 329 332 336 343 345 342 341 339 337 337 332 330 328 325 322 319 319 319 318 319 316 314 313 313 314 313 312 312 313 313 312 316 320 322 324 323 321 321 319
329 330 329 332 330 329 330 333 342 342 341 341 337 337 332 332 328 325 322 319 317 317 317 316 314 312 310 309 309 307 306 307 308 307 309 311 317 318 320 320 319 318 316
328 328 328 325 328 328 330 336 338 343 341 342 339 338 334 331 327 323 321 318 317 318 317 316 313 309 306 304 301 299 298 298 300 303 305 309 312 313 314 315 315 315 315
326 326 324 324 324 325 326 328 337 339 336 340 341 340 337 331 326 323 320 318 317 316 317 311 306 301 298 296 296 296 296 295 295 296 299 304 305 305 308 310 311 312 312
324 321 322 318 320 323 324 326 330 333 333 336 335 335 333 329 327 323 319 318 319 314 314 306 302 298 295 295 294 294 294 294 294 294 295 297 298 299 301 304 306 307 308
319 318 318 317 318 320 321 323 330 329 328 326 330 332 331 328 325 324 321 320 314 311 310 306 301 297 295 294 293 293 293 293 292 292 292 292 293 294 296 298 299 301 304
315 314 314 314 316 318 320 321 324 323 320 321 321 322 327 325 324 322 319 315 309 306 303 302 299 298 297 293 290 290 291 292 292 292 291 291 291 290 291 291 293 295 298
311 311 311 312 315 317 317 316 316 315 315 310 314 315 318 319 318 317 312 309 307 304 302 300 296 295 294 293 290 289 289 290 290 290 291 290 289 289 289 289 290 290 292
307 309 310 311 314 316 315 316 316 316 312 309 306 309 310 313 313 312 309 305 308 303 300 298 295 294 293 294 294 291 287 287 288 289 289 289 289 288 287 287 287 288 289
306 307 308 310 313 314 315 315 308 307 303 301 301 303 304 304 306 309 308 304 303 305 301 298 298 298 293 295 297 300 292 291 286 287 287 288 288 288 287 286 286 286 287
306 308 308 310 312 313 314 310 310 309 306 306 306 302 297 301 302 300 300 300 300 304 300 300 301 301 297 294 295 294 294 296 291 283 285 286 287 287 287 286 285 285 286
306 306 308 309 311 312 313 311 311 311 314 314 309 301 298 294 297 300 296 295 298 301 301 303 302 301 299 299 297 292 290 291 292 288 283 283 285 286 287 286 286 286 285
304 305 307 307 309 311 310 311 311 312 311 306 304 300 295 292 290 290 292 295 297 300 299 301 301 299 300 299 298 293 291 289 288 288 285 284 284 284 286 286 286 286 286
Wind_Speed
11 12 11 10 12 13 15 14 14 14 14 15 14 14 14 15 14 13 13 14 15 16 17 13 19 19 20 19 19 20 20 20 20 21 22 22 22 21 21 22 19 20 22
13 13 11 11 11 12 14 14 12 13 13 15 14 13 14 15 14 14 13 13 14 16 16 17 19 19 19 19 20 20 20 19 18 13 14 20 21 22 22 21 21 19 22
14 13 14 10 11 13 13 13 12 13 14 14 14 14 14 14 14 14 13 13 13 16 14 17 18 19 19 19 19 19 19 19 16 11 12 15 18 22 22 22 20 21 23
13 12 13 11 12 13 13 13 12 13 13 14 14 15 15 14 15 15 14 13 14 16 14 18 19 18 19 19 20 19 20 18 13 12 13 15 17 22 22 23 23 23 23
13 12 11 11 12 13 13 12 12 12 13 13 14 14 15 15 15 15 15 15 15 16 16 19 20 19 19 19 20 19 18 16 11 16 16 15 14 19 23 24 22 23 21
13 12 12 11 13 13 13 12 12 14 13 14 14 14 15 15 15 15 16 16 16 16 17 19 19 19 19 20 19 19 18 14 13 15 15 16 17 20 22 23 22 22 21
13 12 14 10 12 12 12 12 11 13 14 14 13 14 14 15 15 16 16 17 17 17 18 19 20 20 20 20 19 19 17 14 15 14 17 14 14 20 20 22 21 22 23
13 12 12 10 9 11 11 13 12 13 14 14 14 14 14 15 16 16 17 18 18 18 18 19 20 20 20 20 20 19 14 12 14 16 15 14 19 24 25 23 24 23 23
13 12 11 12 10 8 9 10 11 13 13 13 12 13 13 14 15 16 15 17 18 19 19 19 20 20 20 20 20 19 15 12 16 12 14 11 18 21 23 22 23 25 25
12 13 13 12 12 11 11 9 10 12 11 12 11 12 13 13 14 14 13 16 18 19 19 19 20 20 20 20 19 15 12 12 14 14 12 10 18 21 21 21 20 21 24
11 13 12 12 12 12 12 11 12 14 12 11 12 12 12 10 11 11 12 16 18 18 19 20 20 21 20 19 17 13 11 11 12 10 8 16 21 22 22 21 23 25 26
15 14 13 13 13 12 9 11 11 10 12 12 11 12 6 9 9 11 12 14 16 18 19 19 18 13 10 9 8 10 9 12 11 12 8 18 22 23 25 26 27 27 27
15 12 11 11 10 11 10 7 6 5 6 8 10 8 9 7 8 7 7 8 10 12 10 11 9 7 10 8 8 9 10 10 9 9 13 17 21 22 24 25 25 26 26
15 14 12 9 6 5 3 8 9 9 5 6 8 10 8 6 8 7 5 7 6 6 9 9 7 10 11 11 11 11 11 10 8 8 12 15 17 21 23 23 23 24 23
15 14 13 11 10 7 7 3 5 10 9 9 9 12 9 8 8 6 7 6 7 7 7 8 10 9 10 11 10 12 12 12 12 8 8 14 16 20 21 21 22 22 23
15 16 14 13 12 10 9 10 6 6 10 10 10 12 12 8 8 7 8 7 6 8 7 9 10 10 9 9 11 11 11 10 10 11 9 11 20 21 21 21 21 21 22
15 15 15 14 12 11 12 8 8 7 4 7 10 15 16 12 11 10 8 7 7 8 11 10 11 9 9 8 11 10 10 10 10 10 8 8 12 20 19 20 20 20 20
15 16 15 10 12 12 10 9 7 7 6 6 7 8 13 13 13 10 8 8 10 8 10 8 9 9 8 8 9 8 8 9 10 10 8 7 7 8 15 17 18 18 19
17 16 15 14 14 13 11 9 10 8 6 5 5 7 14 13 13 11 9 10 10 9 8 10 8 10 9 9 9 8 7 7 8 8 10 10 10 8 7 15 17 18 19
17 16 15 13 15 14 9 8 7 6 4 4 4 4 10 9 13 10 8 10 9 9 8 8 11 8 11 11 10 9 7 6 6 6 8 8 9 8 7 6 7 10 17
17 17 18 17 16 12 10 10 8 9 5 3 3 5 6 8 10 12 9 11 10 10 11 11 12 15 11 12 10 9 7 6 6 5 5 7 7 7 7 6 4 4 6
20 19 19 18 17 15 11 10 7 8 4 2 3 5 5 7 10 10 12 11 13 11 12 12 15 11 10 12 7 8 6 4 4 4 4 5 6 5 5 6 6 6 5
19 20 20 19 18 16 15 9 6 5 3 3 4 4 5 5 5 10 12 11 12 11 12 14 16 16 12 11 13 3 6 5 8 4 5 5 6 4 5 5 5 6 6
19 18 19 19 19 17 18 14 16 9 7 6 6 5 4 5 7 6 7 12 13 11 12 12 13 13 13 13 8 5 3 9 6 6 5 5 5 5 5 3 4 5 5
14 17 17 17 18 17 17 16 13 13 10 9 8 9 7 4 4 9 10 8 9 10 11 14 15 13 11 11 10 6 4 4 4 4 7 7 5 5 4 3 3 3 5
10 12 14 18 18 18 17 18 17 17 12 9 9 8 6 4 3 5 8 10 10 10 12 12 13 14 11 10 8 7 6 5 7 5 5 10 8 6 5 5 4 3 3
Wind_Direction
192 176 185 171 153 142 127 118 112 104 100 97 91 91 89 86 81 79 76 77 76 76 74 82 90 82 75 71 68 67 65 65 64 67 64 59 59 58 52 44 40 49 52
158 164 169 168 151 142 127 123 121 109 106 98 94 92 91 91 87 84 78 78 76 82 80 84 85 82 79 72 67 66 66 64 62 48 82 74 57 57 57 50 44 43 45
157 161 169 153 143 137 139 132 126 112 108 101 100 99 97 95 92 87 82 78 86 83 83 89 84 80 76 73 68 67 68 66 60 49 63 72 64 58 58 57 56 51 49
154 161 162 150 145 145 144 138 129 117 112 106 104 99 96 92 88 86 87 85 85 89 88 90 85 81 76 73 72 69 66 63 53 57 66 66 66 61 62 61 58 55 56
155 159 146 149 146 145 146 145 135 121 117 111 104 100 96 91 88 88 86 87 86 86 81 85 82 77 77 76 74 72 69 65 59 71 64 65 68 63 64 64 63 62 58
159 161 142 152 149 154 152 150 141 128 125 118 110 104 96 92 93 91 91 91 90 87 87 84 84 80 79 78 76 72 70 69 70 71 72 67 64 65 63 67 64 63 60
165 163 161 162 158 157 155 152 146 136 129 123 114 105 102 101 99 96 93 92 91 89 87 86 85 82 82 80 78 74 70 58 71 70 66 59 66 71 72 65 64 62 62
168 166 163 165 161 158 158 159 152 146 135 131 122 114 107 103 100 97 96 95 94 93 92 91 88 88 87 85 80 74 56 71 74 72 67 61 55 60 62 65 58 71 65
170 172 172 173 170 155 158 159 155 147 141 134 128 116 103 100 100 99 98 100 99 99 98 97 95 93 91 88 80 71 59 60 74 68 69 63 59 63 61 60 59 62 62
178 181 178 176 175 172 169 162 156 148 145 139 127 118 108 102 101 100 103 102 103 103 103 102 99 94 91 84 76 70 76 73 73 71 69 70 74 73 70 69 68 63 59
185 189 183 179 181 180 176 169 162 158 150 141 136 134 146 124 119 113 94 106 107 106 105 105 102 99 94 83 75 67 65 74 72 68 64 66 72 72 74 75 70 70 68
186 186 185 185 186 188 176 176 174 168 170 168 165 156 131 132 124 114 103 106 109 107 106 105 103 106 108 103 93 81 81 84 75 70 58 66 74 74 73 72 70 69 68
189 183 189 193 189 195 181 178 176 178 190 171 162 160 146 127 133 133 130 129 125 128 118 114 109 91 95 96 92 91 90 85 80 73 44 67 76 78 76 72 71 68 65
190 189 187 182 179 186 186 196 193 182 168 169 170 163 153 150 149 146 141 138 136 135 124 115 103 101 95 92 93 93 91 92 89 82 50 44 70 81 84 83 77 74 71
196 188 189 185 184 188 191 208 204 197 183 180 175 178 165 164 158 148 146 142 138 134 131 124 122 112 103 98 94 93 92 91 90 88 71 37 63 73 74 74 72 71 70
198 193 188 193 194 186 205 200 204 205 204 192 180 187 180 164 156 153 151 148 143 144 138 133 125 117 102 100 95 91 91 91 92 88 83 61 59 67 71 73 73 74 73
201 196 197 198 195 199 202 205 212 207 200 195 195 191 186 171 162 155 151 153 151 145 132 122 115 109 108 101 102 96 94 92 93 97 98 87 78 63 68 73 72 73 73
203 203 201 197 201 205 210 207 202 213 204 205 186 189 180 170 164 162 156 160 157 144 137 134 130 115 113 118 113 104 100 95 92 90 92 93 83 79 67 68 73 71 70
207 204 203 202 204 205 211 214 213 204 203 196 194 192 191 169 164 166 164 163 152 149 139 141 131 130 129 125 115 107 97 94 92 93 92 88 86 86 86 72 65 61 63
208 207 205 201 203 199 199 205 207 206 195 193 192 185 185 175 166 163 157 156 145 142 135 141 137 137 135 130 117 103 95 96 99 98 98 92 89 89 84 75 70 63 57
208 205 205 200 200 195 194 194 199 208 193 182 198 181 174 169 164 162 154 150 150 155 154 150 140 141 141 138 123 108 97 94 97 98 103 105 102 90 85 78 75 72 67
205 206 205 205 199 199 199 199 209 190 197 171 165 193 185 171 168 169 160 163 171 141 150 158 151 144 150 171 147 133 151 139 107 110 117 122 126 120 103 85 77 71 69
210 206 205 202 200 199 198 182 155 148 98 154 199 195 194 166 171 171 170 167 170 158 169 169 164 161 164 183 189 156 162 176 148 162 157 150 155 148 131 112 88 73 62
213 207 206 202 200 198 195 189 196 193 183 193 185 179 168 163 176 158 167 167 160 161 165 185 176 173 165 173 192 233 288 128 184 166 182 173 174 168 159 136 98 72 64
206 203 204 203 202 198 195 201 197 203 204 195 185 174 172 156 173 175 164 158 165 175 176 189 179 182 183 176 189 161 173 164 187 154 163 172 182 182 173 161 143 91 67
198 202 202 202 204 201 200 204 205 205 200 188 182 182 176 167 167 175 174 180 176 180 179 184 185 184 183 187 190 186 173 183 180 163 140 162 171 177 180 183 171 129 69